Location: *
(46.1006°N, 1.8394°E)
Time: 21:53:59
(UTC+00:00)

Ariane Rocket - Pass Details

Date: 20 September 2019
Orbit: 761 x 769 km, 98.8° (Epoch: 18 October)

Event Time Altitude Azimuth Distance (km) Brightness Sun altitude
Rises 18:25:19 0° 154° (SSE) 3,213 5.9 -6.1°
Reaches altitude 10° 18:27:38 10° 151° (SSE) 2,293 5.1 -6.5°
Maximum altitude 18:32:36 62° 71° (ENE) 860 3.0 -7.3°
Drops below altitude 10° 18:37:37 10° 352° (N) 2,314 5.7 -8.2°
Sets 18:39:57 0° 349° (N) 3,246 6.5 -8.6°
